Powrót do katalogu

FENGYUN 1C DEB

AktywnyPO
NORAD 38169·DEBRIS·🇨🇳 China

Wystrzelony May 10, 1999 z Taiyuan Satellite Launch Center

Loading…

Następne Przeloty (najbliższe 24 godziny)

TLE

ŚwieżeSource: Space-Track

Epoka: Sep 14, 2026, 05:47 UTC

1 38169U 99025ERS 26257.24162330  .00009341  00000-0  12440-2 0  9995
2 38169  98.9869 267.0803 0024290 287.5630  72.2925 14.79722011653333

Śledź FENGYUN 1C DEB w czasie rzeczywistym z AllMySat

Download on the App Store